ATLAS 5 CENTAUR DEB, 44896

Orbit data source: Space-Track

ATLAS 5 CENTAUR DEB, 44896 is space debris in HEO originally from a launch on Wed, 17 Oct 2018 UTC launched from the Air Force Eastern Test Range (AFETR). Debris objects in space refer to the collection of defunct objects orbiting the Earth. Examples of debris include non-operational satellites, rocket bodies, and fragments generated from explosions, collisions, or faulty payload assembly.

Loading next visibility...
Identifier
44896, 2018-079BK
Orbit
HEO
Country
Flag of USUS
Related business
Flag of USUnited Launch Alliance/Lockheed Martin (US)
Manufacturer
ULA Decatur
Mission
Spacecraft
Bus & Motor
Unknown
Mass
Unknown
Launch date (UTC)
2018-10-17 (7 years ago)
Launch vehicle
Unknown
Launch site
Air Force Eastern Test Range (AFETR)
Object type
Payload
Rocket body
Debris
Shape & HBR
Unknown shape, 1.1 m
Radar Cross Section
RCS unknown

Expand to show TLE details & history
Last TLE update: 3 months ago

TLE from 3 months ago
0 ATLAS 5 CENTAUR DEB
1 44896U 18079BK  25272.21944470 -.00000154  00000-0  00000-0 0  9996
2 44896  13.3553  11.3141 4603765   8.0951 357.3134  2.00751330 42461
Epoch: 2025-09-29T05:16Z
TLE epoch observation values (Epoch: 2025-09-29T05:16:00.022Z)
Latitude
-0.00008°
Longitude
-75.91981°
Altitude
7,968.953 km
Speed
6.368 km/s
True Right ascension
00h 45m 13s
True Declination
0° 00' 00"
Sunlit
Object was in full shadow at epoch
Visualization orbit readout
Latitude
Unknown
Longitude
Unknown
Altitude
Unknown
Speed
Unknown
Apparent Right ascension
Unknown
Apparent Declination
Unknown
Sunlit
N/A
Visualization observer readout
Local Sidereal Time
10:39:00
Azimuth
Unknown
Elevation
Unknown
Doppler factor
Unknown
Orbital elements
Apogee altitude
32,388.996 km
Perigee altitude
7,946.701 km
Semi-major axis
26,545.986 km
Eccentricity
0.46038
Inclination
13.3553°
RAAN
11.3141°
Arg. of periapsis
8.0951°
True anomaly
351.82722°
Mean anomaly
357.3134°
Eccentric anomaly
355.02667°
Mean motion
0.50182 °/min
Orbital period
717.39 mins
BSTAR
0
Loading maneuver chart data...
Computing Atmospheric mass density...

Documentation

Showing up to 5 results
|